INTELSAT 35E

Last updated on Sun Oct 29 2017 00:18:49 GMT+0000 (Coordinated Universal Time)

1 42818U 17041A 17299.99710151 -.00000242 00000-0 00000-0 0 9996 2 42818 0.0203 244.7763 0001956 325.2179 149.9946 1.00268097 1245
UTC large
Height (km)
Speed (km/s)
/
Latitude / Longitude
Inclination (degrees)
Orbital Period (minutes)
Azimuth
Elevation
Range (km)
Doppler Factor

Next 0 passes for location: London (51.5072 / 0.1276)

Sorry there are no passes over London.